Вернуться в каталог

YAOGAN-36 03B

АктивенВоенныеVLEO
NORAD 54374·PAYLOAD·🇨🇳 China

Запущен Nov 27, 2022 с Xichang Satellite Launch Center

Loading…

Ближайшие Пролёты (ближайшие 24 часа)

TLE

СвежийSource: Space-Track

Эпоха: Sep 14, 2026, 22:23 UTC

1 54374U 22160C   26257.93279778  .00006344  00000-0  27294-3 0  9992
2 54374  34.9924 162.7255 0009509 251.0995 108.8688 15.21915941211403

Отслеживайте YAOGAN-36 03B в реальном времени с AllMySat

Download on the App Store